,,PA_Meas_PMT16A,,PR_Meas_QMR101_102,,RH_Meas_QMH101,,SR_Meas_QMS101,,TA_Meas_QMH101,,GenWind,,GenWind,
time,status,PA,status,PR,status,RH,status,SR,status,TA,status,DirAvg,status,SpdAvg,
2011-10-23, 00:00:04,VALID,916.512,VALID,0,VALID,97.877,VALID,0,VALID,19.7598,VALID,127,VALID,0.39375,
2011-10-23, 00:01:04,VALID,916.51,VALID,0,VALID,97.8847,VALID,0,VALID,19.7598,VALID,127,VALID,0.200781,
2011-10-23, 00:02:04,VALID,916.511,VALID,0,VALID,97.8847,VALID,0.107441,VALID,19.7403,VALID,127,VALID,0.395312,
2011-10-23, 00:03:04,VALID,916.505,VALID,0,VALID,97.877,VALID,0,VALID,19.7403,VALID,127,VALID,0.417188,
2011-10-23, 00:04:04,VALID,916.505,VALID,0,VALID,97.8847,VALID,0,VALID,19.7403,VALID,127,VALID,0.0148437,
2011-10-23, 00:05:04,VALID,916.516,VALID,0,VALID,97.8847,VALID,0,VALID,19.7403,VALID,127,VALID,0.422656,
2011-10-23, 00:06:04,VALID,916.476,VALID,0,VALID,97.8923,VALID,0,VALID,19.7208,VALID,127,VALID,0.435547,
2011-10-23, 00:07:04,VALID,916.445,VALID,0,VALID,97.8847,VALID,0,VALID,19.7403,VALID,127,VALID,0.594531,
2011-10-23, 00:08:04,VALID,916.419,VALID,0,VALID,97.8923,VALID,0,VALID,19.7403,VALID,127,VALID,0.465625,
2011-10-23, 00:09:04,VALID,916.417,VALID,0,VALID,97.877,VALID,0.107441,VALID,19.7403,VALID,127,VALID,0.469531,
2011-10-23, 00:10:04,VALID,916.371,VALID,0,VALID,97.8923,VALID,0,VALID,19.7613,VALID,127,VALID,0.485156,
2011-10-23, 00:11:04,VALID,916.366,VALID,0,VALID,97.8694,VALID,0,VALID,19.7598,VALID,127,VALID,0.599219,
2011-10-23, 00:12:04,VALID,916.345,VALID,0,VALID,97.8923,VALID,0,VALID,19.7598,VALID,127,VALID,0.553516,
2011-10-23, 00:13:04,VALID,916.318,VALID,0,VALID,97.8847,VALID,0,VALID,19.7793,VALID,127,VALID,0.480078,
2011-10-23, 00:14:04,VALID,916.284,VALID,0,VALID,97.9075,VALID,0,VALID,19.7403,VALID,140,VALID,0.941797,
2011-10-23, 00:15:04,VALID,916.35,VALID,0,VALID,97.8923,VALID,0,VALID,19.7598,VALID,143,VALID,0.563281,
2011-10-23, 00:16:04,VALID,916.347,VALID,0,VALID,97.8847,VALID,0,VALID,19.7403,VALID,147,VALID,0.594141,
2011-10-23, 00:17:04,VALID,916.302,VALID,0,VALID,97.877,VALID,0,VALID,19.7598,VALID,147,VALID,0.810938,
2011-10-23, 00:18:04,VALID,916.336,VALID,0,VALID,97.9152,VALID,0,VALID,19.7793,VALID,147,VALID,0.222656,
2011-10-23, 00:19:04,VALID,916.269,VALID,0,VALID,97.9152,VALID,0,VALID,19.7793,VALID,147,VALID,0.798437,
2011-10-23, 00:20:04,VALID,916.29,VALID,0,VALID,97.8999,VALID,0,VALID,19.7988,VALID,147,VALID,0.605469,
2011-10-23, 00:21:04,VALID,916.283,VALID,0,VALID,97.8923,VALID,0,VALID,19.7988,VALID,167,VALID,0.696875,
2011-10-23, 00:22:04,VALID,916.255,VALID,0,VALID,97.9152,VALID,0,VALID,19.7793,VALID,160,VALID,1.28711,
2011-10-23, 00:23:04,VALID,916.23,VALID,0,VALID,97.9075,VALID,0,VALID,19.7808,VALID,168,VALID,0.615625,
2011-10-23, 00:24:04,VALID,916.226,VALID,0,VALID,97.9304,VALID,0.107441,VALID,19.7793,VALID,138,VALID,1.36641,
2011-10-23, 00:25:04,VALID,916.212,VALID,0,VALID,97.8923,VALID,0.107441,VALID,19.7793,VALID,151,VALID,0.945313,
2011-10-23, 00:26:04,VALID,916.192,VALID,0,VALID,97.8999,VALID,0,VALID,19.7583,VALID,151,VALID,0.461719,
2011-10-23, 00:27:04,VALID,916.172,VALID,0,VALID,97.9152,VALID,0,VALID,19.7808,VALID,129,VALID,1.04336,
2011-10-23, 00:28:04,VALID,916.143,VALID,0,VALID,97.8923,VALID,0,VALID,19.7793,VALID,152,VALID,1.01289,
2011-10-23, 00:29:04,VALID,916.144,VALID,0,VALID,97.8847,VALID,0,VALID,19.7793,VALID,158,VALID,1.60977,
2011-10-23, 00:30:04,VALID,916.12,VALID,0,VALID,97.8847,VALID,0,VALID,19.7793,VALID,149,VALID,0.573047,
2011-10-23, 00:31:04,VALID,916.108,VALID,0,VALID,97.8923,VALID,0,VALID,19.7793,VALID,149,VALID,0.398047,
2011-10-23, 00:32:04,VALID,916.063,VALID,0,VALID,97.9152,VALID,0,VALID,19.7793,VALID,169,VALID,0.910937,
2011-10-23, 00:33:04,VALID,916.085,VALID,0,VALID,97.9228,VALID,0.107441,VALID,19.7793,VALID,169,VALID,0.878516,
2011-10-23, 00:34:04,VALID,916.072,VALID,0,VALID,97.9075,VALID,0,VALID,19.7793,VALID,169,VALID,0.0613281,
2011-10-23, 00:35:04,VALID,916.057,VALID,0,VALID,97.9075,VALID,0,VALID,19.7793,VALID,169,VALID,0.995313,
2011-10-23, 00:36:04,VALID,916.047,VALID,0,VALID,97.9075,VALID,0.107441,VALID,19.7793,VALID,169,VALID,0.732813,
2011-10-23, 00:37:04,VALID,916.021,VALID,0,VALID,97.8923,VALID,0.107441,VALID,19.7598,VALID,169,VALID,0.530078,
2011-10-23, 00:38:04,VALID,916.025,VALID,0,VALID,97.9152,VALID,0,VALID,19.7613,VALID,169,VALID,0.847266,
2011-10-23, 00:39:04,VALID,916.01,VALID,0,VALID,97.9228,VALID,0,VALID,19.7403,VALID,159,VALID,0.422266,
2011-10-23, 00:40:04,VALID,915.977,VALID,0,VALID,97.9228,VALID,0,VALID,19.7418,VALID,159,VALID,0.632813,
2011-10-23, 00:41:04,VALID,915.951,VALID,0,VALID,97.9152,VALID,0,VALID,19.7208,VALID,159,VALID,0.265625,
2011-10-23, 00:42:04,VALID,915.928,VALID,0,VALID,97.9304,VALID,0.107441,VALID,19.7418,VALID,159,VALID,0.423438,
2011-10-23, 00:43:04,VALID,915.92,VALID,0,VALID,97.9152,VALID,0.107441,VALID,19.7223,VALID,159,VALID,0.783984,
2011-10-23, 00:44:04,VALID,915.937,VALID,0,VALID,97.9075,VALID,0.107441,VALID,19.7013,VALID,159,VALID,0.582422,
2011-10-23, 00:45:04,VALID,915.886,VALID,0,VALID,97.9152,VALID,0,VALID,19.7013,VALID,159,VALID,0.970312,
2011-10-23, 00:46:04,VALID,915.863,VALID,0,VALID,97.9304,VALID,0,VALID,19.7013,VALID,159,VALID,0.423438,
2011-10-23, 00:47:04,VALID,915.855,VALID,0,VALID,97.9152,VALID,0,VALID,19.7013,VALID,159,VALID,0.751562,
2011-10-23, 00:48:04,VALID,915.842,VALID,0,VALID,97.9228,VALID,0,VALID,19.7013,VALID,159,VALID,0.327734,
2011-10-23, 00:49:04,VALID,915.803,VALID,0,VALID,97.9304,VALID,0.107441,VALID,19.7013,VALID,159,VALID,0.228906,
2011-10-23, 00:50:04,VALID,915.807,VALID,0,VALID,97.9152,VALID,0,VALID,19.7208,VALID,159,VALID,0.4125,
2011-10-23, 00:51:04,VALID,915.776,VALID,0,VALID,97.9152,VALID,0.107441,VALID,19.6818,VALID,159,VALID,0.495703,
2011-10-23, 00:52:04,VALID,915.764,VALID,0,VALID,97.9304,VALID,0,VALID,19.7028,VALID,159,VALID,0.954297,
2011-10-23, 00:53:04,VALID,915.741,VALID,0,VALID,97.938,VALID,0,VALID,19.6818,VALID,159,VALID,0.254297,
2011-10-23, 00:54:04,VALID,915.765,VALID,0,VALID,97.9152,VALID,0,VALID,19.6833,VALID,159,VALID,0.617969,
2011-10-23, 00:55:04,VALID,915.719,VALID,0,VALID,97.9228,VALID,0,VALID,19.7028,VALID,159,VALID,0.742578,
2011-10-23, 00:56:04,VALID,915.742,VALID,0,VALID,97.9304,VALID,0,VALID,19.6638,VALID,159,VALID,0.757031,
2011-10-23, 00:57:04,VALID,915.698,VALID,0,VALID,97.9304,VALID,0,VALID,19.6428,VALID,159,VALID,0.755859,
2011-10-23, 00:58:04,VALID,915.713,VALID,0,VALID,97.9533,VALID,0,VALID,19.6038,VALID,159,VALID,0.804297,
2011-10-23, 00:59:04,VALID,915.689,VALID,0,VALID,97.938,VALID,0,VALID,19.6038,VALID,159,VALID,0.805469,
2011-10-23, 01:00:04,VALID,915.707,VALID,0,VALID,97.9304,VALID,0,VALID,19.5633,VALID,159,VALID,0.451562,
2011-10-23, 01:01:04,VALID,915.684,VALID,0,VALID,97.9609,VALID,0,VALID,19.5858,VALID,159,VALID,0.354297,
2011-10-23, 01:02:04,VALID,915.636,VALID,0,VALID,97.9456,VALID,0,VALID,19.5648,VALID,159,VALID,0.194141,
2011-10-23, 01:03:04,VALID,915.636,VALID,0,VALID,97.938,VALID,0.107441,VALID,19.5663,VALID,159,VALID,0.610156,
2011-10-23, 01:04:04,VALID,915.639,VALID,0,VALID,97.9533,VALID,0.107441,VALID,19.5468,VALID,159,VALID,0.546484,
2011-10-23, 01:05:04,VALID,915.617,VALID,0,VALID,97.9609,VALID,0,VALID,19.5063,VALID,159,VALID,0.545313,
2011-10-23, 01:06:04,VALID,915.618,VALID,0,VALID,97.9533,VALID,0,VALID,19.5063,VALID,159,VALID,0.422266,
2011-10-23, 01:07:04,VALID,915.594,VALID,0,VALID,97.9609,VALID,0,VALID,19.5258,VALID,159,VALID,0.879297,
2011-10-23, 01:08:04,VALID,915.598,VALID,0,VALID,97.9609,VALID,0,VALID,19.5468,VALID,159,VALID,0.415625,
2011-10-23, 01:09:04,VALID,915.588,VALID,0,VALID,97.9685,VALID,0.107441,VALID,19.5258,VALID,159,VALID,0.323047,
2011-10-23, 01:10:04,VALID,915.572,VALID,0,VALID,97.9533,VALID,0,VALID,19.5063,VALID,159,VALID,0.240625,
2011-10-23, 01:11:04,VALID,915.549,VALID,0,VALID,97.9685,VALID,0,VALID,19.5063,VALID,159,VALID,0.531641,
2011-10-23, 01:12:04,VALID,915.591,VALID,0,VALID,97.9685,VALID,0,VALID,19.5078,VALID,159,VALID,0.769922,
2011-10-23, 01:13:04,VALID,915.536,VALID,0,VALID,97.9456,VALID,0,VALID,19.5078,VALID,158,VALID,0.405078,
2011-10-23, 01:14:04,VALID,915.571,VALID,0,VALID,97.9533,VALID,0,VALID,19.5273,VALID,158,VALID,0.209766,
2011-10-23, 01:15:04,VALID,915.531,VALID,0,VALID,97.9761,VALID,0,VALID,19.5468,VALID,124,VALID,0.917969,
2011-10-23, 01:16:04,VALID,915.511,VALID,0,VALID,97.9685,VALID,0,VALID,19.5663,VALID,116,VALID,0.247656,
2011-10-23, 01:17:04,VALID,915.514,VALID,0,VALID,97.9456,VALID,0,VALID,19.5873,VALID,116,VALID,0.267188,
2011-10-23, 01:18:04,VALID,915.476,VALID,0,VALID,97.9685,VALID,0,VALID,19.6068,VALID,116,VALID,0.009375,
2011-10-23, 01:19:04,VALID,915.475,VALID,0,VALID,97.9685,VALID,0,VALID,19.6263,VALID,116,VALID,0.293359,
2011-10-23, 01:20:04,VALID,915.474,VALID,0,VALID,97.9685,VALID,0,VALID,19.6053,VALID,116,VALID,0,
2011-10-23, 01:21:04,VALID,915.472,VALID,0,VALID,97.9685,VALID,0,VALID,19.6458,VALID,116,VALID,0.262891,
2011-10-23, 01:22:04,VALID,915.465,VALID,0,VALID,97.9838,VALID,0,VALID,19.7043,VALID,116,VALID,0.595312,
2011-10-23, 01:23:04,VALID,915.45,VALID,0,VALID,97.9609,VALID,0,VALID,19.6833,VALID,116,VALID,0.708594,
2011-10-23, 01:24:04,VALID,915.432,VALID,0,VALID,97.9609,VALID,0,VALID,19.6638,VALID,116,VALID,0.607813,
2011-10-23, 01:25:04,VALID,915.421,VALID,0,VALID,97.9533,VALID,0,VALID,19.6443,VALID,116,VALID,0.408203,
2011-10-23, 01:26:04,VALID,915.407,VALID,0,VALID,97.9533,VALID,0,VALID,19.6638,VALID,116,VALID,0.737891,
2011-10-23, 01:27:04,VALID,915.422,VALID,0,VALID,97.9609,VALID,0,VALID,19.6443,VALID,116,VALID,0.344922,
2011-10-23, 01:28:04,VALID,915.403,VALID,0,VALID,97.9533,VALID,0,VALID,19.6638,VALID,116,VALID,0.56875,
2011-10-23, 01:29:04,VALID,915.388,VALID,0,VALID,97.9533,VALID,0,VALID,19.6443,VALID,116,VALID,0.573438,
2011-10-23, 01:30:04,VALID,915.374,VALID,0,VALID,97.9609,VALID,0,VALID,19.6443,VALID,116,VALID,0.782031,
2011-10-23, 01:31:04,VALID,915.353,VALID,0,VALID,97.9609,VALID,0,VALID,19.6623,VALID,116,VALID,0.614062,
2011-10-23, 01:32:04,VALID,915.325,VALID,0,VALID,97.9609,VALID,0,VALID,19.6623,VALID,116,VALID,0.848828,
2011-10-23, 01:33:04,VALID,915.3,VALID,0,VALID,97.9685,VALID,0,VALID,19.6818,VALID,116,VALID,0.614844,
2011-10-23, 01:34:04,VALID,915.289,VALID,0,VALID,97.9533,VALID,0,VALID,19.7028,VALID,116,VALID,0.0125,
2011-10-23, 01:35:04,VALID,915.287,VALID,0,VALID,97.9533,VALID,0,VALID,19.7223,VALID,116,VALID,0.371484,
2011-10-23, 01:36:04,VALID,915.264,VALID,0,VALID,97.9685,VALID,0,VALID,19.6818,VALID,116,VALID,0.322266,
2011-10-23, 01:37:04,VALID,915.222,VALID,0,VALID,97.9456,VALID,0,VALID,19.7013,VALID,116,VALID,0.374219,
2011-10-23, 01:38:04,VALID,915.236,VALID,0,VALID,97.9685,VALID,0,VALID,19.7418,VALID,116,VALID,0.234375,
2011-10-23, 01:39:04,VALID,915.226,VALID,0,VALID,97.9456,VALID,0,VALID,19.7013,VALID,116,VALID,0.241797,
2011-10-23, 01:40:04,VALID,915.217,VALID,0,VALID,97.9685,VALID,0,VALID,19.6818,VALID,116,VALID,0.372266,
2011-10-23, 01:41:04,VALID,915.21,VALID,0,VALID,97.9456,VALID,0,VALID,19.7013,VALID,116,VALID,0.237109,
2011-10-23, 01:42:04,VALID,915.205,VALID,0,VALID,97.9456,VALID,0,VALID,19.7028,VALID,116,VALID,0.678906,
2011-10-23, 01:43:04,VALID,915.176,VALID,0,VALID,97.9761,VALID,0,VALID,19.7028,VALID,116,VALID,0.128906,
2011-10-23, 01:44:04,VALID,915.17,VALID,0,VALID,97.9456,VALID,0,VALID,19.7223,VALID,116,VALID,0.377734,
2011-10-23, 01:45:04,VALID,915.172,VALID,0,VALID,97.9533,VALID,0,VALID,19.7028,VALID,116,VALID,0.456641,
2011-10-23, 01:46:04,VALID,915.163,VALID,0,VALID,97.9533,VALID,0,VALID,19.7028,VALID,116,VALID,0.183203,
2011-10-23, 01:47:04,VALID,915.158,VALID,0,VALID,97.9609,VALID,0,VALID,19.7028,VALID,116,VALID,0.218359,
2011-10-23, 01:48:04,VALID,915.116,VALID,0,VALID,97.9609,VALID,0,VALID,19.7028,VALID,116,VALID,0.563672,
2011-10-23, 01:49:04,VALID,915.131,VALID,0,VALID,97.9533,VALID,0.107441,VALID,19.7013,VALID,130,VALID,0.624609,
2011-10-23, 01:50:04,VALID,915.126,VALID,0,VALID,97.9685,VALID,0,VALID,19.6818,VALID,155,VALID,0.390625,
2011-10-23, 01:51:04,VALID,915.126,VALID,0,VALID,97.9609,VALID,0,VALID,19.7028,VALID,153,VALID,0.682031,
2011-10-23, 01:52:04,VALID,915.093,VALID,0,VALID,97.9609,VALID,0,VALID,19.7223,VALID,153,VALID,0.277734,
2011-10-23, 01:53:04,VALID,915.101,VALID,0,VALID,97.9685,VALID,0,VALID,19.7013,VALID,152,VALID,0.996484,
2011-10-23, 01:54:04,VALID,915.064,VALID,0,VALID,97.9609,VALID,0,VALID,19.7013,VALID,174,VALID,0.605078,
2011-10-23, 01:55:04,VALID,915.028,VALID,0,VALID,97.9685,VALID,0,VALID,19.7028,VALID,174,VALID,0.895312,
2011-10-23, 01:56:04,VALID,915.019,VALID,0,VALID,97.9456,VALID,0,VALID,19.7028,VALID,174,VALID,0.536719,
2011-10-23, 01:57:04,VALID,915.008,VALID,0,VALID,97.9761,VALID,0,VALID,19.7028,VALID,144,VALID,0.724219,
2011-10-23, 01:58:04,VALID,915.002,VALID,0,VALID,97.9838,VALID,0,VALID,19.6833,VALID,166,VALID,1.32383,
2011-10-23, 01:59:04,VALID,914.977,VALID,0,VALID,97.9761,VALID,0,VALID,19.6818,VALID,159,VALID,1.21758,
2011-10-23, 02:00:04,VALID,914.992,VALID,0,VALID,97.9685,VALID,0,VALID,19.6818,VALID,150,VALID,0.510547,
2011-10-23, 02:01:04,VALID,914.976,VALID,0,VALID,97.9838,VALID,0,VALID,19.6623,VALID,163,VALID,1.83203,
2011-10-23, 02:02:04,VALID,914.947,VALID,0,VALID,97.9761,VALID,0,VALID,19.6623,VALID,160,VALID,1.21914,
2011-10-23, 02:03:04,VALID,914.921,VALID,0,VALID,97.9761,VALID,0,VALID,19.7028,VALID,173,VALID,0.854688,
2011-10-23, 02:04:04,VALID,914.933,VALID,0,VALID,97.9761,VALID,0,VALID,19.6623,VALID,173,VALID,0.958594,
2011-10-23, 02:05:04,VALID,914.941,VALID,0,VALID,97.9609,VALID,0,VALID,19.6623,VALID,172,VALID,0.686328,
2011-10-23, 02:06:04,VALID,914.923,VALID,0,VALID,97.9685,VALID,0,VALID,19.7028,VALID,170,VALID,1.45078,
2011-10-23, 02:07:04,VALID,914.988,VALID,0,VALID,97.9838,VALID,0,VALID,19.6833,VALID,158,VALID,1.05898,
2011-10-23, 02:08:04,VALID,914.985,VALID,0,VALID,97.9838,VALID,0.107441,VALID,19.6623,VALID,158,VALID,0.65,
2011-10-23, 02:09:04,VALID,914.986,VALID,0,VALID,97.9838,VALID,0,VALID,19.6833,VALID,161,VALID,0.840625,
2011-10-23, 02:10:04,VALID,914.972,VALID,0,VALID,97.9914,VALID,0,VALID,19.6428,VALID,127,VALID,1.06055,
2011-10-23, 02:11:04,VALID,914.999,VALID,0,VALID,97.9914,VALID,0,VALID,19.6428,VALID,152,VALID,1.14063,
2011-10-23, 02:12:04,VALID,914.944,VALID,0,VALID,97.9838,VALID,0,VALID,19.6638,VALID,153,VALID,0.959375,
2011-10-23, 02:13:04,VALID,914.913,VALID,0,VALID,97.9914,VALID,0,VALID,19.6428,VALID,160,VALID,1.01953,
2011-10-23, 02:14:04,VALID,914.906,VALID,0,VALID,97.9914,VALID,0,VALID,19.6638,VALID,140,VALID,1.32695,
2011-10-23, 02:15:04,VALID,914.906,VALID,0,VALID,98.0066,VALID,0,VALID,19.6428,VALID,152,VALID,1.50859,
2011-10-23, 02:16:04,VALID,914.878,VALID,0,VALID,97.999,VALID,0,VALID,19.6833,VALID,107,VALID,0.795703,
2011-10-23, 02:17:04,VALID,914.886,VALID,0,VALID,97.9761,VALID,0,VALID,19.6428,VALID,140,VALID,1.38398,
2011-10-23, 02:18:04,VALID,914.887,VALID,0,VALID,97.9761,VALID,0,VALID,19.6833,VALID,166,VALID,1.125,
2011-10-23, 02:19:04,VALID,914.882,VALID,0,VALID,97.9914,VALID,0,VALID,19.6428,VALID,182,VALID,1.49336,
2011-10-23, 02:20:04,VALID,914.905,VALID,0,VALID,97.9838,VALID,0,VALID,19.6833,VALID,110,VALID,0.938672,
2011-10-23, 02:21:04,VALID,914.864,VALID,0,VALID,97.9761,VALID,0,VALID,19.6638,VALID,138,VALID,1.07148,
2011-10-23, 02:22:04,VALID,914.86,VALID,0,VALID,97.9914,VALID,0,VALID,19.6233,VALID,114,VALID,0.770703,
2011-10-23, 02:23:04,VALID,914.85,VALID,0,VALID,97.9685,VALID,0,VALID,19.6428,VALID,123,VALID,0.891797,
2011-10-23, 02:24:04,VALID,914.795,VALID,0,VALID,97.9838,VALID,0,VALID,19.6443,VALID,136,VALID,1.36055,
2011-10-23, 02:25:04,VALID,914.842,VALID,0,VALID,97.9838,VALID,0,VALID,19.6443,VALID,134,VALID,0.846094,
2011-10-23, 02:26:04,VALID,914.795,VALID,0,VALID,97.9838,VALID,0,VALID,19.6638,VALID,131,VALID,0.814062,
2011-10-23, 02:27:04,VALID,914.754,VALID,0,VALID,98.0066,VALID,0,VALID,19.6233,VALID,119,VALID,0.830469,
2011-10-23, 02:28:04,VALID,914.742,VALID,0,VALID,97.999,VALID,0,VALID,19.6233,VALID,124,VALID,0.802344,
2011-10-23, 02:29:04,VALID,914.684,VALID,0,VALID,97.9914,VALID,0,VALID,19.6038,VALID,124,VALID,0.758594,
2011-10-23, 02:30:04,VALID,914.681,VALID,0,VALID,98.0066,VALID,0,VALID,19.6038,VALID,124,VALID,0.717578,
2011-10-23, 02:31:04,VALID,914.648,VALID,0,VALID,98.0066,VALID,0.107441,VALID,19.6038,VALID,124,VALID,0.282422,
2011-10-23, 02:32:04,VALID,914.635,VALID,0,VALID,97.9914,VALID,0.107441,VALID,19.6038,VALID,136,VALID,0.822656,
2011-10-23, 02:33:04,VALID,914.61,VALID,0,VALID,98.0066,VALID,0.107441,VALID,19.6248,VALID,136,VALID,0.84375,
2011-10-23, 02:34:04,VALID,914.586,VALID,0,VALID,98.0066,VALID,0.107441,VALID,19.6038,VALID,136,VALID,0.0140625,
2011-10-23, 02:35:04,VALID,914.609,VALID,0,VALID,97.9914,VALID,0,VALID,19.5843,VALID,136,VALID,0.234766,
2011-10-23, 02:36:04,VALID,914.59,VALID,0,VALID,97.999,VALID,0,VALID,19.5648,VALID,136,VALID,0.00585938,
2011-10-23, 02:37:04,VALID,914.556,VALID,0,VALID,98.0143,VALID,0.107441,VALID,19.5843,VALID,136,VALID,0.711328,
2011-10-23, 02:38:04,VALID,914.583,VALID,0,VALID,98.0143,VALID,0,VALID,19.5648,VALID,135,VALID,0.59375,
2011-10-23, 02:39:04,VALID,914.55,VALID,0,VALID,97.9914,VALID,0,VALID,19.5648,VALID,135,VALID,0.312891,
2011-10-23, 02:40:04,VALID,914.57,VALID,0,VALID,98.0143,VALID,0.107441,VALID,19.5438,VALID,135,VALID,0.274219,
2011-10-23, 02:41:04,VALID,914.556,VALID,0,VALID,98.0219,VALID,0,VALID,19.5858,VALID,135,VALID,0.0449219,
2011-10-23, 02:42:04,VALID,914.549,VALID,0,VALID,98.0295,VALID,0,VALID,19.5663,VALID,135,VALID,0.287891,
2011-10-23, 02:43:04,VALID,914.537,VALID,0,VALID,97.999,VALID,0,VALID,19.5648,VALID,135,VALID,0.25,
2011-10-23, 02:44:04,VALID,914.514,VALID,0,VALID,98.0066,VALID,0,VALID,19.5453,VALID,135,VALID,0,
2011-10-23, 02:45:04,VALID,914.518,VALID,0,VALID,97.999,VALID,0,VALID,19.5663,VALID,135,VALID,0,
2011-10-23, 02:46:04,VALID,914.514,VALID,0,VALID,98.0143,VALID,0,VALID,19.5438,VALID,135,VALID,0.919922,
2011-10-23, 02:47:04,VALID,914.527,VALID,0,VALID,98.0066,VALID,0,VALID,19.6038,VALID,134,VALID,0.969141,
2011-10-23, 02:48:04,VALID,914.486,VALID,0,VALID,98.0219,VALID,0.107441,VALID,19.5843,VALID,134,VALID,0.282813,
2011-10-23, 02:49:04,VALID,914.489,VALID,0,VALID,98.0143,VALID,0.107441,VALID,19.5648,VALID,134,VALID,0.324609,
2011-10-23, 02:50:04,VALID,914.488,VALID,0,VALID,98.0143,VALID,0,VALID,19.5648,VALID,134,VALID,0.146875,
2011-10-23, 02:51:04,VALID,914.468,VALID,0,VALID,98.0066,VALID,0.107441,VALID,19.5453,VALID,134,VALID,0.540625,
2011-10-23, 02:52:04,VALID,914.467,VALID,0,VALID,98.0066,VALID,0.107441,VALID,19.5258,VALID,134,VALID,0.269531,
2011-10-23, 02:53:04,VALID,914.45,VALID,0,VALID,98.0219,VALID,0,VALID,19.5258,VALID,134,VALID,0.238672,
2011-10-23, 02:54:04,VALID,914.451,VALID,0,VALID,98.0219,VALID,0,VALID,19.5258,VALID,134,VALID,0.2625,
2011-10-23, 02:55:04,VALID,914.438,VALID,0,VALID,98.0219,VALID,0.107441,VALID,19.5258,VALID,134,VALID,0.397656,
2011-10-23, 02:56:04,VALID,914.388,VALID,0,VALID,98.0066,VALID,0.107441,VALID,19.5063,VALID,134,VALID,0.225781,
2011-10-23, 02:57:04,VALID,914.402,VALID,0,VALID,98.0143,VALID,0,VALID,19.5258,VALID,134,VALID,0.76875,
2011-10-23, 02:58:04,VALID,914.407,VALID,0,VALID,98.0219,VALID,0.107441,VALID,19.5468,VALID,134,VALID,0.925391,
2011-10-23, 02:59:04,VALID,914.404,VALID,0,VALID,98.0219,VALID,0.107441,VALID,19.5453,VALID,132,VALID,0.759766,
2011-10-23, 03:00:04,VALID,914.386,VALID,0,VALID,98.0295,VALID,0.107441,VALID,19.5258,VALID,135,VALID,0.600391,
2011-10-23, 03:01:04,VALID,914.391,VALID,0,VALID,98.0219,VALID,0,VALID,19.5453,VALID,141,VALID,1.01094,
2011-10-23, 03:02:04,VALID,914.411,VALID,0,VALID,98.0143,VALID,0,VALID,19.5468,VALID,180,VALID,1.11094,
2011-10-23, 03:03:04,VALID,914.411,VALID,0,VALID,98.0371,VALID,0.107441,VALID,19.5453,VALID,152,VALID,1.15078,
2011-10-23, 03:04:04,VALID,914.407,VALID,0,VALID,98.0066,VALID,0,VALID,19.5453,VALID,173,VALID,0.703906,
2011-10-23, 03:05:04,VALID,914.441,VALID,0,VALID,98.0219,VALID,0,VALID,19.5453,VALID,147,VALID,0.828516,
2011-10-23, 03:06:04,VALID,914.44,VALID,0,VALID,98.0143,VALID,0,VALID,19.5858,VALID,170,VALID,1.38242,
2011-10-23, 03:07:04,VALID,914.437,VALID,0,VALID,98.0143,VALID,0,VALID,19.5843,VALID,165,VALID,0.695703,
2011-10-23, 03:08:04,VALID,914.44,VALID,0,VALID,98.0219,VALID,0.107441,VALID,19.5648,VALID,175,VALID,0.935156,
2011-10-23, 03:09:04,VALID,914.433,VALID,0,VALID,98.0448,VALID,0,VALID,19.5453,VALID,156,VALID,0.693359,
2011-10-23, 03:10:04,VALID,914.417,VALID,0,VALID,98.0448,VALID,0.107441,VALID,19.5258,VALID,160,VALID,0.666797,
2011-10-23, 03:11:04,VALID,914.416,VALID,0,VALID,98.0371,VALID,0,VALID,19.5858,VALID,163,VALID,1.13008,
2011-10-23, 03:12:04,VALID,914.445,VALID,0,VALID,98.0066,VALID,0.107441,VALID,19.5453,VALID,163,VALID,0.499609,
2011-10-23, 03:13:04,VALID,914.423,VALID,0,VALID,98.0295,VALID,0.107441,VALID,19.5063,VALID,163,VALID,0.493359,
2011-10-23, 03:14:04,VALID,914.411,VALID,0,VALID,98.0143,VALID,0,VALID,19.4868,VALID,163,VALID,0.749609,
2011-10-23, 03:15:04,VALID,914.413,VALID,0,VALID,98.0295,VALID,0,VALID,19.4673,VALID,163,VALID,0.466797,
2011-10-23, 03:16:04,VALID,914.403,VALID,0,VALID,98.0448,VALID,0,VALID,19.4868,VALID,163,VALID,0.894141,
2011-10-23, 03:17:04,VALID,914.391,VALID,0,VALID,98.0295,VALID,0,VALID,19.4868,VALID,163,VALID,0.639063,
2011-10-23, 03:18:04,VALID,914.408,VALID,0,VALID,98.0448,VALID,0.107441,VALID,19.5078,VALID,163,VALID,0.533203,
2011-10-23, 03:19:04,VALID,914.419,VALID,0,VALID,98.0371,VALID,0.107441,VALID,19.4868,VALID,163,VALID,0.0648438,
2011-10-23, 03:20:04,VALID,914.401,VALID,0,VALID,98.0295,VALID,0,VALID,19.4868,VALID,163,VALID,0.300781,
2011-10-23, 03:21:04,VALID,914.405,VALID,0,VALID,98.0371,VALID,0.107441,VALID,19.4688,VALID,163,VALID,0.303906,
2011-10-23, 03:22:04,VALID,914.437,VALID,0,VALID,98.0524,VALID,0,VALID,19.4088,VALID,163,VALID,0.366016,
2011-10-23, 03:23:04,VALID,914.406,VALID,0,VALID,98.0371,VALID,0,VALID,19.4298,VALID,163,VALID,0.506641,
2011-10-23, 03:24:04,VALID,914.378,VALID,0,VALID,98.0371,VALID,0,VALID,19.4283,VALID,163,VALID,0.458594,
2011-10-23, 03:25:04,VALID,914.386,VALID,0,VALID,98.0448,VALID,0.107441,VALID,19.4478,VALID,163,VALID,0.591797,
2011-10-23, 03:26:04,VALID,914.361,VALID,0,VALID,98.0295,VALID,0,VALID,19.4478,VALID,141,VALID,0.994141,
2011-10-23, 03:27:04,VALID,914.356,VALID,0,VALID,98.0295,VALID,0,VALID,19.4478,VALID,134,VALID,0.635156,
2011-10-23, 03:28:04,VALID,914.333,VALID,0,VALID,98.0295,VALID,0,VALID,19.4478,VALID,113,VALID,1.12148,
2011-10-23, 03:29:04,VALID,914.269,VALID,0,VALID,98.0143,VALID,0,VALID,19.4868,VALID,143,VALID,0.968359,
2011-10-23, 03:30:04,VALID,914.269,VALID,0,VALID,98.0371,VALID,0,VALID,19.5468,VALID,123,VALID,1.7375,
2011-10-23, 03:31:04,VALID,914.264,VALID,0,VALID,98.0143,VALID,0,VALID,19.6068,VALID,142,VALID,1.50469,
2011-10-23, 03:32:04,VALID,914.241,VALID,0,VALID,97.999,VALID,0,VALID,19.6053,VALID,138,VALID,0.633984,
2011-10-23, 03:33:04,VALID,914.247,VALID,0,VALID,98.0066,VALID,0,VALID,19.5873,VALID,138,VALID,0.977344,
2011-10-23, 03:34:04,VALID,914.257,VALID,0,VALID,98.0143,VALID,0,VALID,19.5663,VALID,108,VALID,1.33242,
2011-10-23, 03:35:04,VALID,914.252,VALID,0,VALID,98.0143,VALID,0,VALID,19.5078,VALID,96,VALID,0.883594,
2011-10-23, 03:36:04,VALID,914.281,VALID,0,VALID,97.9914,VALID,0,VALID,19.4883,VALID,96,VALID,1.26445,
2011-10-23, 03:37:04,VALID,914.28,VALID,0,VALID,97.999,VALID,0,VALID,19.4883,VALID,87,VALID,1.09922,
2011-10-23, 03:38:04,VALID,914.251,VALID,0,VALID,97.9914,VALID,0,VALID,19.4883,VALID,102,VALID,1.11836,
2011-10-23, 03:39:04,VALID,914.259,VALID,0,VALID,97.9914,VALID,0,VALID,19.5273,VALID,104,VALID,1.09063,
2011-10-23, 03:40:04,VALID,914.234,VALID,0,VALID,97.9914,VALID,0,VALID,19.5483,VALID,104,VALID,1.01367,
2011-10-23, 03:41:04,VALID,914.221,VALID,0,VALID,97.999,VALID,0,VALID,19.5663,VALID,111,VALID,1.14492,